Regional Weather Roundup
Issued by NWS Sioux Falls, SD

Home | Current Version | Previous Version | Text Only | Print | Product List | Glossary Off
Versions: 1 2 3 4 5 6 7 8 9 10 11 12 13 14 15 16 17 18 19 20 21 22 23 24 25 26 27 28 29 30 31 32 33 34 35 36 37 38 39 40 41 42 43 44 45 46 47 48 49 50

000
ASUS43 KFSD 191310
RWRFSD

WEATHER ROUNDUP FOR SE SOUTH DAKOTA/SW MINNESOTA/NW IOWA
NATIONAL WEATHER SERVICE SIOUX FALLS SD
700 AM CST FRI JAN 19 2018

NOTE: "FAIR" INDICATES FEW OR NO CLOUDS BELOW 12,000 FEET WITH NO
SIGNIFICANT WEATHER AND OR OBSTRUCTIONS TO VISIBILITY.


SDZ038>040-050-052>070-191400-
SOUTHEAST SOUTH DAKOTA

CITY           SKY/WX    TMP DP  RH WIND       PRES   REMARKS
BROOKINGS      CLOUDY    28  25  88 S9        29.56F WCI  19
CHAMBERLAIN    MOCLDY    31  30  94 SW6       29.55F WCI  26
HURON          CLOUDY    28  26  92 S6        29.55R WCI  22
MADISON        FAIR      28  28 100 S12       29.55F WCI  18
MITCHELL       CLOUDY    28  26  92 S6        29.56F WCI  22
SIOUX FALLS    CLOUDY    28  25  88 SE5       29.59F WCI  23
WINNER         FAIR      46  31  55 SW10      29.56F
YANKTON        CLOUDY    29  25  85 S5        29.60F WCI  24
$$

MNZ071-072-080-081-089-090-097-098-191400-
SOUTHWEST MINNESOTA

CITY           SKY/WX    TMP DP  RH WIND       PRES   REMARKS
FAIRMONT       CLOUDY    26  23  88 S12       29.64F WCI  16
JACKSON        CLOUDY    30  25  80 S14       29.62F WCI  20
LUVERNE        CLOUDY    27  23  86 SE3       29.61F
MARSHALL       CLOUDY    38  26  62 SW17      29.54F
MONTEVIDEO     CLOUDY    30  27  86 S3        29.54F
PIPESTONE      CLOUDY    27  25  93 S7        29.57F WCI  19
REDWOOD FALLS  CLOUDY    29  26  89 S7        29.57F WCI  22
WINDOM         CLOUDY    32  16  51 S7        29.60F WCI  26
WORTHINGTON    CLOUDY    31  26  82 S13       29.60F WCI  21
$$

IAZ001>003-012>014-020>022-031-032-NEZ013-014-SDZ071-191400-
NORTHWEST IOWA

CITY           SKY/WX    TMP DP  RH WIND       PRES   REMARKS
CHEROKEE       CLOUDY    27  25  94 S3        29.68R
DENISON        CLOUDY    32  25  74 S12       29.74S WCI  23
ESTHERVILLE    CLOUDY    23  22  96 S10       29.64F WCI  12
LE MARS        CLOUDY    28  25  86 S9        29.66S WCI  20
ORANGE CITY    CLOUDY    30  27  86 S8        29.64F WCI  23
SHELDON        CLOUDY    28  27  93 S7        29.62F WCI  21
SIOUX CITY     CLOUDY    27  24  89 SE10      29.68S WCI  17
SPENCER        CLOUDY    26  22  84 S8        29.65F WCI  18
STORM LAKE     CLOUDY    28  23  80 S12       29.67S WCI  18
$$

ABBREVIATIONS USED IN REMARKS
   TC - TEMPERATURE IN CELSIUS
  WCI - WIND CHILL INDEX
   HX - HEAT INDEX
  VSB - VISIBILITY




USA.gov is the U.S. government's official web portal to all federal, state and local government web resources and services.